Location: Peebles
(55.6412°N, 3.1714°W)
Time: 14:47:36
(UTC+01:00)

deb Agena D - Pass Details

Date: 21 September 2024
Orbit: 793 x 976 km, 99.8° (Epoch: 03 October)

Event Time Altitude Azimuth Distance (km) Brightness Sun altitude
Rises 03:57:10 0° 17° (NNE) 3,448 10.3 -23.9°
Reaches altitude 10° 03:59:30 10° 17° (NNE) 2,533 9.4 -23.7°
Maximum altitude 04:05:09 78° 292° (WNW) 930 6.2 -23.1°
Enters shadow 04:06:47 49° 217° (SW) 1,166 6.5 -22.9°
